User: anonymous   Login
Location: Roanoke
(37.2710°N, 79.9420°W)
Time: 17:46:31
(UTC-05:00)
Language:

Cosmos 1441 Rocket - Orbit

View from above orbital plane
View from above orbital plane
View from above satellite
View from above satellite

Ground track
Ground track

The orbit data is extracted from the following two-line orbital elements,

1 13819U 83010B   18053.02858502  .00000900  00000-0  46031-4 0  9998
2 13819  81.1140 227.9605 0031814 224.0065 135.8630 15.15216658911553
Epoch (UTC): 22 February 2018 00:41:09
Eccentricity: 0.0031814
inclination: 81.1140°
perigee height: 498 km
apogee height: 542 km
right ascension of ascending node: 227.9605°
argument of perigee: 224.0065°
revolutions per day: 15.15216658
mean anomaly at epoch: 135.8630°
orbit number at epoch: 91155

The dashed part of the orbit path shows where the satellite is in the earth's shadow,  

DLR